Accueil
METAR-TAF:

METAR-TAF

Aéroports :

Albenga, Italie

Aéroport international de Villanova d'Albenga

latitude: 44-03N, longitude: 008-07E, altitude: 45 m

Observation

Le bulletin a été fait il y a 1 heure et 2 minutes, à 07:50 UTC
Vent 5 kt de est
Température 21°C
Humidité 64%
Pression 1018 hPa
Visibilité 10 km ou plus
pas de nuages en-dessous de 1500 mètres et pas de cumulonimbus.

METAR: LIMG 230750Z 10005KT CAVOK 21/14 Q1018

Heure: 10:52 (08:52 UTC)


TAF: absent

Observations et prévisions météorologiques de plus de 4000 aéroports (messages METAR et TAF).

Les stations disponibles sont représentées par des disques jaunes et rouges sur la carte.

Passer la souris dessus pour voir le nom de la station.

Cliquer dessus pour voir les observations et prévisions météorologiques.

Pour changer de carte: cliquez sur les boutons verts avec une croix noire pour zoomer, sur le bouton vert avec un tiret pour effectuer un zoom arrière, ou sur les flèches vertes pour les cartes adjacentes.


METAR-TAF: